Wainwright, AK

9:52 PM AKST on February 19, 2018 (GMT -0900)
Wainwright

Weather History for PAWI - September, 2013

Change the Weather History Date:

Tuesday, September 24, 2013

  Actual Average (PABR) Record (PABR)
Temperature  
Mean Temperature 27 °F -  
Max Temperature 34 °F 30 °F 53 °F (1995)
Min Temperature 21 °F 23 °F 3 °F (1985)
Degree Days  
Heating Degree Days 38    
Moisture  
Dew Point 24 °F    
Average Humidity 82    
Maximum Humidity 88    
Minimum Humidity 75    
Precipitation  
Precipitation 0.00 in - - ()
Sea Level Pressure  
Sea Level Pressure 29.66 in    
Wind  
Wind Speed 13 mph (SSE)    
Max Wind Speed 15 mph    
Max Gust Speed -    
Visibility 10 miles    
Events Snow    
Averages and records for this station are not official NWS values.
T = Trace of Precipitation, MM = Missing Value Source: NWS Daily Summary

Daily Weather History Graph

Daily Weather History Graph

Search for Another Location

Airport or City:

Trip Planner

Search our weather history database for the weather conditions in past years. The results will help you decide how hot, cold, wet, or windy it might be!

Date:

Astronomy

Sep. 24, 2013 Rise Set
Actual Time 8:29 AM AKDT 8:31 PM AKDT
Civil Twilight 7:26 AM AKDT 9:34 PM AKDT
Nautical Twilight 6:06 AM AKDT 10:53 PM AKDT
Astronomical Twilight 4:15 AM AKDT 12:39 AM AKDT
Moon 7:38 PM AKDT (9/24) 6:13 PM AKDT (9/24)
Length of Visible Light 14h 07m
Length of Day
12h 01m
Waning Gibbous, 72% of the Moon is Illuminated
Sep 24
Waning Gibbous
Sep 26
Last Quarter
Oct 4
New
Oct 11
First Quarter
Oct 18
Full

Hourly Weather History & Observations

Time (AKDT) Temp. Windchill Dew Point Humidity Pressure Visibility Wind Dir Wind Speed Gust Speed Precip Events Conditions
12:53 AM 26.1 °F 15.6 °F 21.0 °F 81% 29.68 in 10.0 mi SE 11.5 mph - N/A   Clear
1:53 AM 24.1 °F 13.1 °F 19.0 °F 81% 29.68 in 10.0 mi ESE 11.5 mph - N/A   Scattered Clouds
2:53 AM 21.9 °F 9.8 °F 18.0 °F 85% 29.68 in 10.0 mi SE 12.7 mph - N/A   Overcast
3:53 AM 24.1 °F 12.0 °F 19.0 °F 81% 29.68 in 10.0 mi ESE 13.8 mph - N/A   Overcast
4:53 AM 25.0 °F 13.1 °F 19.9 °F 81% 29.67 in 10.0 mi SE 13.8 mph - N/A   Overcast
5:53 AM 23.0 °F 11.1 °F 19.0 °F 85% 29.67 in 10.0 mi SE 12.7 mph - N/A   Clear
6:53 AM 24.1 °F 11.5 °F 19.0 °F 81% 29.66 in 10.0 mi SE 15.0 mph - N/A   Overcast
7:53 AM 26.1 °F 14.0 °F 19.9 °F 78% 29.66 in 10.0 mi SE 15.0 mph - N/A   Overcast
8:53 AM 28.9 °F 18.6 °F 25.0 °F 85% 29.66 in 4.0 mi SE 12.7 mph - 0.00 in Snow Light Snow
9:53 AM 30.0 °F 19.5 °F 27.0 °F 88% 29.65 in 10.0 mi SSE 13.8 mph - 0.00 in   Overcast
10:53 AM 30.9 °F 20.7 °F 27.0 °F 85% 29.65 in 10.0 mi SSE 13.8 mph - N/A   Overcast
11:53 AM 30.9 °F 21.7 °F 27.0 °F 85% 29.66 in 10.0 mi South 11.5 mph - N/A   Overcast
12:53 PM 30.0 °F 21.7 °F 26.1 °F 85% 29.66 in 10.0 mi South 9.2 mph - N/A   Clear
1:53 PM 30.9 °F 21.2 °F 26.1 °F 82% 29.65 in 10.0 mi South 12.7 mph - N/A   Partly Cloudy
2:53 PM 32.0 °F 22.5 °F 27.0 °F 82% 29.66 in 10.0 mi SSE 12.7 mph - N/A   Overcast
3:53 PM 32.0 °F 22.5 °F 26.1 °F 79% 29.66 in 10.0 mi SSE 12.7 mph - N/A   Overcast
4:53 PM 33.1 °F 23.9 °F 27.0 °F 78% 29.65 in 10.0 mi SSE 12.7 mph - N/A   Mostly Cloudy
5:44 PM 33.8 °F 24.8 °F 26.6 °F 75% 29.64 in 10.0 mi SSE 12.7 mph - N/A   Overcast
5:53 PM 33.1 °F 23.9 °F 27.0 °F 78% 29.65 in 10.0 mi SSE 12.7 mph - N/A   Overcast
6:53 PM 33.1 °F 23.0 °F 27.0 °F 78% 29.65 in 10.0 mi South 15.0 mph - N/A   Overcast
7:24 PM 32.0 °F 22.5 °F 26.6 °F 80% 29.65 in 10.0 mi South 12.7 mph - N/A   Overcast
7:53 PM 32.0 °F 22.5 °F 27.0 °F 82% 29.65 in 10.0 mi South 12.7 mph - N/A   Overcast
8:02 PM 32.0 °F 22.5 °F 26.6 °F 80% 29.65 in 10.0 mi South 12.7 mph - N/A   Overcast
8:20 PM 30.2 °F 19.8 °F 26.6 °F 86% 29.65 in 10.0 mi South 13.8 mph - N/A   Mostly Cloudy
8:53 PM 30.9 °F 20.2 °F 25.0 °F 79% 29.65 in 10.0 mi South 15.0 mph - N/A   Mostly Cloudy
9:53 PM 28.0 °F 18.1 °F 23.0 °F 81% 29.65 in 10.0 mi South 11.5 mph - N/A   Clear
10:53 PM 26.1 °F 14.0 °F 21.9 °F 84% 29.64 in 10.0 mi SSE 15.0 mph - N/A   Clear
11:53 PM 26.1 °F 14.5 °F 21.9 °F 84% 29.64 in 10.0 mi South 13.8 mph - N/A   Clear